Estación meteorológica de Viladrau - Riera Major (Osona, Parc Natural del Montseny)

Consulta los datos en tiempo real de la estación meteorológica de Viladrau - Riera Major





Hora UTC 11:15
Temperatura 13.3 ºC
Humedad 91.8 %
Pluja 0.0 mm
Temp. aigua 10.6 °C

Datos diarios 2026-05-05



Hora UTC (invierno +1h; verano +2h)
Temperatura (ºC) Humedad (%) Precipitación (mm)
Hora UTC Aire Humedad Intent. máx 5 min. Temp. aigua (°C)
00:05 6.1 99.5 0.0 10.3
00:10 5.9 99.6 0.0 10.1
00:15 5.8 99.6 0.0 10.1
00:20 5.8 99.7 0.0 10.1
00:25 5.7 99.7 0.0 10.1
00:30 5.5 99.6 0.0 10.1
00:35 5.4 99.7 0.0 10.1
00:40 5.4 99.8 0.0 10.1
00:45 5.2 99.7 0.0 10.1
00:50 5.1 99.8 0.0 10.1
00:55 5.1 99.9 0.0 10.1
01:00 5.0 99.9 0.0 10.1
01:05 5.0 100.0 0.0 10.1
01:10 5.0 100.0 0.0 9.9
01:15 4.9 100.0 0.0 9.9
01:20 4.8 100.0 0.0 9.9
01:25 4.7 100.0 0.0 9.9
01:30 4.7 100.0 0.0 9.9
01:35 4.8 100.0 0.0 9.9
01:40 4.8 100.0 0.0 9.9
01:45 4.8 100.0 0.0 9.9
01:50 4.8 100.0 0.0 9.9
01:55 4.8 100.0 0.0 9.9
02:00 4.8 100.0 0.0 9.9
02:05 4.8 100.0 0.0 9.9
02:10 4.7 100.0 0.0 9.9
02:15 4.7 100.0 0.0 9.7
02:40 4.7 100.0 0.0 9.7
02:55 4.7 100.0 0.0 9.7
03:00 4.6 100.0 0.0 9.7
03:05 4.6 100.0 0.0 9.7
03:10 4.6 100.0 0.0 9.7
03:15 4.6 100.0 0.0 9.7
03:20 4.6 100.0 0.0 9.7
03:25 4.6 100.0 0.0 9.7
03:30 4.6 100.0 0.0 9.7
03:35 4.5 100.0 0.0 9.7
03:40 4.5 100.0 0.0 9.7
03:45 4.4 100.0 0.0 9.7
03:50 4.3 100.0 0.0 9.7
03:55 4.4 100.0 0.0 9.7
04:00 4.4 100.0 0.0 9.7
04:05 4.4 100.0 0.0 9.7
04:10 4.4 100.0 0.0 9.6
04:15 4.4 100.0 0.0 9.6
04:20 4.4 100.0 0.0 9.6
04:25 4.2 100.0 0.0 9.6
04:30 4.1 100.0 0.0 9.6
04:35 4.0 100.0 0.0 9.6
04:40 4.1 100.0 0.0 9.6
04:45 4.2 100.0 0.0 9.6
04:50 4.4 100.0 0.0 9.6
04:55 4.5 100.0 0.0 9.6
05:00 4.5 100.0 0.0 9.6
05:05 4.6 100.0 0.0 9.6
05:10 4.8 100.0 0.0 9.5
05:15 4.8 100.0 0.0 9.5
05:20 4.8 100.0 0.0 9.5
05:25 4.7 100.0 0.0 9.5
05:30 4.6 100.0 0.0 9.5
05:35 4.5 100.0 0.0 9.5
05:40 4.5 100.0 0.0 9.5
05:45 4.6 100.0 0.0 9.5
05:50 4.7 100.0 0.0 9.5
05:55 4.7 100.0 0.0 9.5
06:00 4.7 100.0 0.0 9.5
06:05 4.7 100.0 0.0 9.5
06:10 4.9 100.0 0.0 9.5
06:15 5.2 100.0 0.0 9.5
06:40 7.6 100.0 0.0 9.6
06:55 7.9 100.0 0.0 9.6
07:00 7.9 100.0 0.0 9.6
07:05 8.0 100.0 0.0 9.6
07:15 8.6 100.0 0.0 9.7
07:20 8.9 100.0 0.0 9.7
07:25 9.2 99.8 0.0 9.7
07:30 9.3 99.5 0.0 9.7
07:35 9.4 99.2 0.0 9.7
07:40 9.6 99.2 0.0 9.7
07:45 9.8 99.3 0.0 9.7
07:50 10.0 99.2 0.0 9.7
07:55 10.0 98.9 0.0 9.7
08:00 10.2 99.1 0.0 9.7
08:05 10.2 99.0 0.0 9.7
08:10 10.4 98.8 0.0 9.9
08:15 10.4 98.6 0.0 9.9
08:20 10.6 98.6 0.0 10.0
08:25 10.7 98.3 0.0 10.0
08:30 10.8 97.2 0.0 10.0
08:35 11.3 95.6 0.0 10.0
08:40 11.9 94.6 0.0 10.0
08:45 12.3 92.6 0.0 10.0
08:50 13.3 91.6 0.0 10.0
08:55 14.2 87.8 0.0 10.0
09:00 14.4 80.9 0.0 10.0
09:05 15.1 80.8 0.0 10.0
09:10 14.9 81.5 0.0 10.1
09:15 14.8 83.6 0.0 10.2
09:20 14.2 82.0 0.0 10.2
09:25 13.7 84.7 0.0 10.2
09:30 13.2 88.4 0.0 10.2
09:45 12.7 89.5 0.0 10.2
09:50 12.5 89.4 0.0 10.2
09:55 12.6 91.1 0.0 10.2
10:05 13.1 93.5 0.0 10.2
10:10 13.5 92.3 0.0 10.3
10:15 14.4 91.2 0.0 10.3
10:25 16.2 77.3 0.0 10.3
10:30 16.1 78.0 0.0 10.3
10:40 15.8 81.0 0.0 10.3
10:45 15.4 76.6 0.0 10.3
10:55 15.7 85.1 0.0 10.3
11:00 14.8 81.9 0.0 10.3
11:05 13.4 86.4 0.0 10.3
11:10 13.3 90.3 0.0 10.6
11:15 13.3 91.8 0.0 10.6
Máxima 16.2 100.0 0.0 10.6
Mínima 4.0 76.6 9.5
Total 0.0